Emporia, Virginia, United States (23847)
Lat: 36.69N, Lon: 77.54W
Wx Zone: VAZ087
Local Info
Past Weather Observations for Sunday, February 7, 2016

NOTE: This archive is for the closest National Weather Service station to Emporia. Information may differ from the station used for current weather conditions.

Click here for Long-term Archive

Time Weather Temperature Dewpoint Humidity Pressure Winds Precip Visibility
23:55
Clear
37°F / 3°C 21°F / -6°C 52% 29.8 in
(1009 mb)
NW 15 mph
(NW 24 kph)
- 10SM
23:35
Clear
37°F / 3°C 23°F / -5°C 56% 29.8 in
(1009 mb)
NW 11.5 mph
(NW 19 kph)
- 10SM
23:15
Clear
37°F / 3°C 23°F / -5°C 56% 29.8 in
(1009 mb)
WNW 9.2 mph
(WNW 15 kph)
- 10SM
22:55
Partly Cloudy
37°F / 3°C 23°F / -5°C 56% 29.8 in
(1009 mb)
NW 12.7 mph
(NW 20 kph)
- 10SM
22:35
Mostly Cloudy
37°F / 3°C 23°F / -5°C 56% 29.8 in
(1009 mb)
NW 10.4 mph
(NW 17 kph)
- 10SM
22:15
Overcast
37°F / 3°C 23°F / -5°C 56% 29.83 in
(1010 mb)
NW 12.7 mph
(NW 20 kph)
- 10SM
21:55
Mostly Cloudy
39°F / 4°C 23°F / -5°C 52% 29.83 in
(1010 mb)
NW 11.5 mph
(NW 19 kph)
- 10SM
21:35
Partly Cloudy
39°F / 4°C 23°F / -5°C 52% 29.83 in
(1010 mb)
NW 11.5 mph
(NW 19 kph)
- 10SM
21:15
Partly Cloudy
39°F / 4°C 23°F / -5°C 52% 29.83 in
(1010 mb)
NNW 11.5 mph
(NNW 19 kph)
- 10SM
20:55
Overcast
41°F / 5°C 23°F / -5°C 49% 29.83 in
(1010 mb)
NW 10.4 mph
(NW 17 kph)
- 10SM
20:35
Overcast
41°F / 5°C 23°F / -5°C 49% 29.83 in
(1010 mb)
NW 11.5 mph
(NW 19 kph)
- 10SM
20:15
Overcast
41°F / 5°C 23°F / -5°C 49% 29.86 in
(1011 mb)
NW 11.5 mph
(NW 19 kph)
- 10SM
19:55
Overcast
41°F / 5°C 23°F / -5°C 49% 29.89 in
(1012 mb)
NW 9.2 mph
(NW 15 kph)
- 10SM
19:35
Overcast
41°F / 5°C 23°F / -5°C 49% 29.89 in
(1012 mb)
NW 9.2 mph
(NW 15 kph)
- 10SM
19:15
Overcast
41°F / 5°C 23°F / -5°C 49% 29.89 in
(1012 mb)
NNW 11.5 mph
(NNW 19 kph)
- 10SM
18:55
Mostly Cloudy
41°F / 5°C 23°F / -5°C 49% 29.86 in
(1011 mb)
NNW 9.2 mph
(NNW 15 kph)
- 10SM
18:35
Partly Cloudy
41°F / 5°C 23°F / -5°C 49% 29.86 in
(1011 mb)
NNW 12.7 mph
(NNW 20 kph)
- 10SM
18:15
Mostly Cloudy
41°F / 5°C 23°F / -5°C 49% 29.89 in
(1012 mb)
NNW 10.4 mph
(NNW 17 kph)
- 10SM
17:55
Overcast
41°F / 5°C 23°F / -5°C 49% 29.89 in
(1012 mb)
NNW 11.5 mph
(NNW 19 kph)
- 10SM
17:35
Overcast
41°F / 5°C 23°F / -5°C 49% 29.89 in
(1012 mb)
NNW 10.4 mph
(NNW 17 kph)
- 10SM
17:15
Overcast
41°F / 5°C 25°F / -4°C 53% 29.89 in
(1012 mb)
NNW 13.8 mph
(NNW 22 kph)
- 10SM
16:55
Overcast
41°F / 5°C 25°F / -4°C 53% 29.92 in
(1013 mb)
NNW 11.5 mph
(NNW 19 kph)
- 10SM
16:35
Overcast
41°F / 5°C 25°F / -4°C 53% 29.92 in
(1013 mb)
NNW 8.1 mph
(NNW 13 kph)
- 10SM
16:15
Overcast
41°F / 5°C 27°F / -3°C 57% 29.92 in
(1013 mb)
NNW 13.8 mph
(NNW 22 kph)
- 10SM
15:55
Overcast
41°F / 5°C 27°F / -3°C 57% 29.95 in
(1014 mb)
NNW 8.1 mph
(NNW 13 kph)
- 10SM
15:35
Mostly Cloudy
41°F / 5°C 27°F / -3°C 57% 29.95 in
(1014 mb)
NNW 11.5 mph
(NNW 19 kph)
- 10SM
15:15
Mostly Cloudy
41°F / 5°C 27°F / -3°C 57% 29.95 in
(1014 mb)
NNW 9.2 mph
(NNW 15 kph)
- 10SM
14:55
Overcast
41°F / 5°C 27°F / -3°C 57% 29.95 in
(1014 mb)
NNW 10.4 mph
(NNW 17 kph)
- 10SM
14:35
Overcast
39°F / 4°C 27°F / -3°C 61% 29.98 in
(1015 mb)
N 9.2 mph
(N 15 kph)
- 10SM
14:15
Overcast
39°F / 4°C 27°F / -3°C 61% 29.98 in
(1015 mb)
NNW 9.2 mph
(NNW 15 kph)
- 10SM
13:55
Overcast
39°F / 4°C 25°F / -4°C 56% 29.98 in
(1015 mb)
NNW 6.9 mph
(NNW 11 kph)
- 10SM
13:35
Overcast
39°F / 4°C 25°F / -4°C 56% 29.98 in
(1015 mb)
NNW 10.4 mph
(NNW 17 kph)
- 10SM
13:15
Overcast
39°F / 4°C 25°F / -4°C 56% 30.01 in
(1016 mb)
NNW 10.4 mph
(NNW 17 kph)
- 10SM
12:55
Overcast
37°F / 3°C 27°F / -3°C 65% 30.01 in
(1016 mb)
NNW 12.7 mph
(NNW 20 kph)
- 10SM
12:35
Overcast
37°F / 3°C 27°F / -3°C 65% 30.04 in
(1017 mb)
NNW 9.2 mph
(NNW 15 kph)
- 10SM
12:15
Overcast
37°F / 3°C 27°F / -3°C 65% 30.06 in
(1018 mb)
N 9.2 mph
(N 15 kph)
- 10SM
11:55
Overcast
37°F / 3°C 27°F / -3°C 65% 30.09 in
(1019 mb)
N 6.9 mph
(N 11 kph)
- 10SM
11:35
Overcast
37°F / 3°C 28°F / -2°C 70% 30.09 in
(1019 mb)
N 6.9 mph
(N 11 kph)
- 10SM
11:15
Mostly Cloudy
37°F / 3°C 28°F / -2°C 70% 30.09 in
(1019 mb)
N 6.9 mph
(N 11 kph)
- 10SM
10:55
Overcast
36°F / 2°C 28°F / -2°C 75% 30.09 in
(1019 mb)
NNW 6.9 mph
(NNW 11 kph)
- 10SM
10:35
Mostly Cloudy
36°F / 2°C 28°F / -2°C 75% 30.12 in
(1020 mb)
N 5.8 mph
(N 9 kph)
- 10SM
10:15
Clear
36°F / 2°C 28°F / -2°C 75% 30.12 in
(1020 mb)
NNW 5.8 mph
(NNW 9 kph)
- 10SM
09:55
Clear
36°F / 2°C 28°F / -2°C 75% 30.12 in
(1020 mb)
NNW 6.9 mph
(NNW 11 kph)
- 10SM
09:35
Partly Cloudy
34°F / 1°C 28°F / -2°C 81% 30.12 in
(1020 mb)
NNW 6.9 mph
(NNW 11 kph)
- 10SM
09:15
Partly Cloudy
34°F / 1°C 28°F / -2°C 81% 30.15 in
(1021 mb)
N 5.8 mph
(N 9 kph)
- 10SM
08:55
Mostly Cloudy
34°F / 1°C 28°F / -2°C 81% 30.15 in
(1021 mb)
N 3.5 mph
(N 6 kph)
- 10SM
08:35
Partly Cloudy
34°F / 1°C 28°F / -2°C 81% 30.15 in
(1021 mb)
NNW 3.5 mph
(NNW 6 kph)
- 10SM
08:15
Partly Cloudy
34°F / 1°C 28°F / -2°C 81% 30.15 in
(1021 mb)
NNW 3.5 mph
(NNW 6 kph)
- 10SM
07:55
Clear
34°F / 1°C 28°F / -2°C 81% 30.15 in
(1021 mb)
NNW 3.5 mph
(NNW 6 kph)
- 10SM
07:35
Clear
32°F / 0°C 28°F / -2°C 87% 30.12 in
(1020 mb)
Calm - 10SM
07:15
Clear
32°F / 0°C 28°F / -2°C 87% 30.12 in
(1020 mb)
NNW 4.6 mph
(NNW 7 kph)
- 10SM
06:55
Clear
32°F / 0°C 28°F / -2°C 87% 30.15 in
(1021 mb)
NNW 4.6 mph
(NNW 7 kph)
- 10SM
06:35
Clear
32°F / 0°C 28°F / -2°C 87% 30.15 in
(1021 mb)
Calm - 10SM
06:15
Clear
32°F / 0°C 28°F / -2°C 87% 30.15 in
(1021 mb)
NNW 5.8 mph
(NNW 9 kph)
- 10SM
05:55
Clear
32°F / 0°C 28°F / -2°C 87% 30.15 in
(1021 mb)
NNW 5.8 mph
(NNW 9 kph)
- 10SM
05:35
Partly Cloudy
32°F / 0°C 30°F / -1°C 93% 30.18 in
(1022 mb)
Calm - 10SM
05:15
Mostly Cloudy
32°F / 0°C 30°F / -1°C 93% 30.15 in
(1021 mb)
N 3.5 mph
(N 6 kph)
- 10SM
04:55
Overcast
32°F / 0°C 30°F / -1°C 93% 30.18 in
(1022 mb)
Calm - 10SM
04:35
Overcast
32°F / 0°C 30°F / -1°C 93% 30.18 in
(1022 mb)
NNW 3.5 mph
(NNW 6 kph)
- 10SM
04:15
Mostly Cloudy
32°F / 0°C 30°F / -1°C 93% 30.21 in
(1023 mb)
Calm - 10SM
03:55
Partly Cloudy
32°F / 0°C 30°F / -1°C 93% 30.21 in
(1023 mb)
Calm - 10SM
03:35
Mostly Cloudy
32°F / 0°C 30°F / -1°C 93% 30.21 in
(1023 mb)
Calm - 10SM
03:15
Mostly Cloudy
32°F / 0°C 30°F / -1°C 93% 30.21 in
(1023 mb)
NW 3.5 mph
(NW 6 kph)
- 10SM
02:55
Partly Cloudy
32°F / 0°C 32°F / 0°C 100% 30.21 in
(1023 mb)
NW 4.6 mph
(NW 7 kph)
- 10SM
02:35
Partly Cloudy
32°F / 0°C 30°F / -1°C 93% 30.24 in
(1024 mb)
NW 3.5 mph
(NW 6 kph)
- 10SM
02:15
Mostly Cloudy
32°F / 0°C 30°F / -1°C 93% 30.24 in
(1024 mb)
Calm - 10SM
01:55
Partly Cloudy
32°F / 0°C 30°F / -1°C 93% 30.24 in
(1024 mb)
Calm - 10SM
01:35
Mostly Cloudy
32°F / 0°C 28°F / -2°C 87% 30.27 in
(1025 mb)
Calm - 10SM
01:15
Overcast
32°F / 0°C 28°F / -2°C 87% 30.3 in
(1026 mb)
Calm - 10SM
00:55
Overcast
30°F / -1°C 28°F / -2°C 93% 30.3 in
(1026 mb)
Calm - 10SM
00:35
Overcast
30°F / -1°C 28°F / -2°C 93% 30.27 in
(1025 mb)
Calm - 10SM
00:15
Partly Cloudy
30°F / -1°C 28°F / -2°C 93% 30.27 in
(1025 mb)
Calm - 10SM
Time Weather Temperature Dewpoint Humidity Pressure Winds Precip Visibility


Weather for websites

WeatherForYou.com, LLC is not responsible for any damages or problems caused by this service. Current weather conditions are obtained from the closest station including government and personal stations which may have varying degrees of accuracy. Weather forecasts are derived from the NOAA NDFD. Like all things, this site belongs to Jesus Christ... He just trusts us to maintain it. If you have any questions or comments email webmaster@weatherforyou.com

Copyright © 2016, WeatherForYou.com LLC. All rights reserved.